Tracking 25709 objects as of 24-May-2022
HD Live streaming from Space Station
objects crossing your sky now

COSMOS 1759

Track COSMOS 1759 now!
10-day predictions
COSMOS 1759 is classified as:


NORAD ID: 16798
Int'l Code: 1986-047A
Perigee: 969.7 km
Apogee: 1,007.9 km
Inclination: 82.9 °
Period: 104.7 minutes
Semi major axis: 7359 km
RCS: 2.2129 m2 (large)
Launch date: June 18, 1986
Source: Commonwealth of Independent States (former USSR) (CIS)
Launch site: PLESETSK MISSILE AND SPACE COMPLEX (PKMTR)
aabbcc
Your satellite tracking list
Your tracking list is empty




NASA's NSSDC Master Catalog

Two Line Element Set (TLE):
1 16798U 86047A   22144.12977994  .00000036  00000-0  21715-4 0  9996
2 16798  82.9225 212.1424 0025950  76.3581 347.8755 13.74998019802840
Source of the keplerian elements: AFSPC